This demonstration page uses our WeatherBlox Daily Observations layout. Learn more.

Left ArrowRight Arrow

44.89941, -97.11507

Hourly Observations for January 9, 2016

Temp ( °F °C ) Dew Point ( °F °C ) Humidity (%) Winds ( mph kmh ) Pressure ( in mb ) Visibility ( mi km ) Precip ( " mm )
12:24 am 00:24 Partly Cloudy 4 -15.6 -3 -19.4 73 73 N 17 28 30.24 1024 10 16 0.00 0.00
12:53 am 00:53 Clear 3 -16.1 -3 -19.4 76 76 N 14 22 30.18 1022 10 16 0.00 0.00
1:10 am 01:10 Mostly Cloudy 4 -15.6 -3 -19.4 73 73 NNW 16 26 30.24 1024 10 16 0.00 0.00
1:37 am 01:37 Mostly Cloudy 4 -15.6 -2 -18.9 76 76 N 13 20 30.24 1024 8 13 0.00 0.00
1:53 am 01:53 Partly Cloudy 4 -15.6 -2 -18.9 76 76 N 15 24 30.18 1022 10 16 0.00 0.00
2:53 am 02:53 Cloudy 5 -15 -1 -18.3 76 76 NNW 17 28 30.18 1022 9 14 0.00 0.00
3:02 am 03:02 Cloudy 5 -15 -1 -18.3 76 76 NNW 20 31 30.24 1024 10 16 0.00 0.00
3:53 am 03:53 Cloudy with Haze 4 -15.6 -2 -18.9 76 76 NNW 15 24 30.18 1022 6 10 0.00 0.00
4:02 am 04:02 Cloudy 4 -15.6 -3 -19.4 73 73 NNW 21 33 30.24 1024 9 14 0.00 0.00
4:20 am 04:20 Cloudy 4 -15.6 -3 -19.4 73 73 NNW 21 33 30.30 1026 10 16 0.00 0.00
4:39 am 04:39 Cloudy with Haze 4 -15.6 -2 -18.9 76 76 NNW 18 30 30.30 1026 6 10 0.00 0.00
4:53 am 04:53 Cloudy with Haze 4 -15.6 -3 -19.4 73 73 NNW 22 35 30.19 1022 3 5 0.00 0.00
5:08 am 05:08 Cloudy with Haze 4 -15.6 -3 -19.4 73 73 NNW 22 35 30.30 1026 4 6 0.00 0.00
5:16 am 05:16 Cloudy 3 -16.1 -4 -20 72 72 NNW 20 31 30.24 1024 9 14 0.00 0.00
5:33 am 05:33 Cloudy with Haze 3 -16.1 -3 -19.4 76 76 NNW 18 30 30.30 1026 3 4 0.00 0.00
5:41 am 05:41 Cloudy with Haze 3 -16.1 -4 -20 72 72 N 18 30 30.30 1026 5 8 0.00 0.00
5:53 am 05:53 Cloudy with Haze 2 -16.7 -4 -20 76 76 NNW 16 26 30.20 1023 5 8 0.00 0.00
6:21 am 06:21 Mostly Cloudy 2 -16.7 -5 -20.6 72 72 NNW 20 31 30.30 1026 8 13 0.00 0.00
6:36 am 06:36 Mostly Cloudy with Haze 2 -16.7 -4 -20 76 76 NNW 18 30 30.30 1026 3 5 0.00 0.00
6:51 am 06:51 Mostly Cloudy 1 -17 -6 -21 71 71 NNW 20 31 30.30 1026 10 16 0.00 0.00
6:53 am 06:53 Mostly Cloudy 2 -16.7 -6 -21.1 69 69 NNW 21 33 30.22 1023 10 16 0.00 0.00
7:01 am 07:01 Mostly Clear 1 -17.2 -7 -21.7 68 68 NNW 18 30 30.30 1026 10 16 0.00 0.00
7:53 am 07:53 Clear 0 -17.8 -7 -21.7 72 72 NNW 21 33 30.24 1024 10 16 0.00 0.00
8:53 am 08:53 Sunny -1 -18.3 -8 -22.2 72 72 N 15 24 30.30 1026 10 16 0.00 0.00
9:05 am 09:05 Mostly Cloudy -1 -18.3 -8 -22.2 72 72 NNW 15 24 30.39 1029 8 13 0.00 0.00
9:32 am 09:32 Cloudy with Haze -1 -18.3 -8 -22.2 72 72 N 14 22 30.42 1030 6 10 0.00 0.00
9:42 am 09:42 Cloudy with Haze -1 -18.3 -9 -22.8 68 68 N 13 20 30.42 1030 5 8 0.00 0.00
9:46 am 09:46 Cloudy with Haze -1 -18.3 -8 -22.2 72 72 N 13 20 30.42 1030 3 4 0.00 0.00
9:53 am 09:53 Cloudy with Haze -1 -18.3 -8 -22.2 72 72 NNW 12 19 30.34 1027 3 5 0.00 0.00
10:14 am 10:14 Mostly Cloudy -1 -18.3 -9 -22.8 68 68 NNW 14 22 30.42 1030 9 14 0.00 0.00
10:53 am 10:53 Cloudy 0 -17.8 -8 -22.2 69 69 NNW 15 24 30.34 1028 7 11 0.00 0.00
11:53 am 11:53 Cloudy -1 -18.3 -9 -22.8 68 68 N 20 31 30.33 1027 8 13 0.00 0.00
12:53 pm 12:53 Cloudy with Haze -1 -18.3 -9 -22.8 68 68 N 21 33 30.31 1027 2 3 0.00 0.00
12:59 pm 12:59 Cloudy with Haze -2 -18.9 -10 -23.3 68 68 NNW 24 39 30.42 1030 1 2 0.00 0.00
1:08 pm 13:08 Mostly Cloudy with Haze -2 -18.9 -11 -23.9 65 65 NNW 22 35 30.42 1030 2 3 0.00 0.00
1:16 pm 13:16 Mostly Cloudy with Haze -1 -18.3 -11 -23.9 62 62 N 23 37 30.39 1029 6 10 0.00 0.00
1:53 pm 13:53 Cloudy with Haze -1 -18.3 -10 -23.3 65 65 NNW 22 35 30.30 1026 5 8 0.00 0.00
2:50 pm 14:50 Partly Cloudy -2 -19 -11 -24 65 65 NNW 20 31 30.42 1030 10 16 0.00 0.00
2:53 pm 14:53 Partly Cloudy -2 -18.9 -12 -24.4 62 62 NNW 20 31 30.31 1027 10 16 0.00 0.00
3:53 pm 15:53 Mostly Sunny -3 -19.4 -13 -25 61 61 NNW 21 33 30.32 1027 10 16 0.00 0.00
4:53 pm 16:53 Sunny -4 -20 -13 -25 65 65 NNW 15 24 30.35 1028 10 16 0.00 0.00
5:29 pm 17:29 Mostly Cloudy -5 -20.6 -12 -24.4 72 72 NNW 16 26 30.45 1031 9 14 0.00 0.00
5:45 pm 17:45 Partly Cloudy -5 -20.6 -13 -25 68 68 NNW 16 26 30.45 1031 10 16 0.00 0.00
5:53 pm 17:53 Mostly Clear -5 -20.6 -14 -25.6 64 64 NNW 14 22 30.35 1028 10 16 0.00 0.00
6:53 pm 18:53 Clear -6 -21.1 -14 -25.6 67 67 NNW 9 15 30.36 1028 10 16 0.00 0.00
7:53 pm 19:53 Clear -8 -22.2 -15 -26.1 71 71 NW 7 11 30.36 1028 10 16 0.00 0.00
8:53 pm 20:53 Clear -9 -22.8 -15 -26.1 75 75 W 5 7 30.35 1028 10 16 0.00 0.00
9:53 pm 21:53 Clear -8 -22.2 -15 -26.1 71 71 WNW 7 11 30.35 1028 10 16 0.00 0.00
10:53 pm 22:53 Clear -8 -22.2 -14 -25.6 74 74 NW 8 13 30.34 1028 10 16 0.00 0.00
11:53 pm 23:53 Clear -8 -22.2 -15 -26.1 71 71 NW 8 13 30.33 1027 10 16 0.00 0.00

Powered by AerisWeather